Weather History for Sheldon, IA

Change the Weather History Date:

Wednesday, March 26, 2014

  Actual Average Record
Temperature  
Mean Temperature 40 °F -  
Max Temperature 62 °F 47 °F 78 °F (1968)
Min Temperature 17 °F 26 °F -1 °F (1965)
Degree Days  
Heating Degree Days 26    
Moisture  
Dew Point 21 °F    
Average Humidity 49    
Maximum Humidity 81    
Minimum Humidity 31    
Precipitation  
Precipitation 0.00 in - - ()
Sea Level Pressure  
Sea Level Pressure 29.73 in    
Wind  
Wind Speed 19 mph (SSE)    
Max Wind Speed 36 mph    
Max Gust Speed 47 mph    
Visibility 10 miles    
Events      
Averages and records for this station are not official NWS values.
T = Trace of Precipitation, MM = Missing Value Source: NWS Daily Summary

Daily Weather History Graph

Daily Weather History Graph

Search for Another Location

Airport:

Trip Planner

Search our weather history database for the weather conditions in past years. The results will help you decide how hot, cold, wet, or windy it might be!

Date:

Astronomy

Mar. 26, 2014 Rise Set
Actual Time 7:15 AM CDT 7:42 PM CDT
Civil Twilight 6:47 AM CDT 8:11 PM CDT
Nautical Twilight 6:13 AM CDT 8:45 PM CDT
Astronomical Twilight 5:39 AM CDT 9:19 PM CDT
Moon 4:32 AM CDT (3/26) 3:16 PM CDT (3/26)
Length of Visible Light 13h 24m
Length of Day
12h 27m
Waning Crescent, 21% of the Moon is Illuminated
Mar 26
Waning Crescent
Mar 30
New
Apr 7
First Quarter
Apr 15
Full
Apr 22
Last Quarter

Hourly Weather History & Observations

Time (CDT) Temp. Windchill Dew Point Humidity Pressure Visibility Wind Dir Wind Speed Gust Speed Precip Events Conditions
12:15 AM 17.6 °F 8.2 °F 8.6 °F 68% 30.09 in 10.0 mi ESE 6.9 mph - N/A   Clear
12:35 AM 17.6 °F 7.3 °F 6.8 °F 63% 30.08 in 10.0 mi SE 8.1 mph - N/A   Clear
12:55 AM 17.6 °F 7.3 °F 8.6 °F 68% 30.08 in 10.0 mi SE 8.1 mph - N/A   Clear
1:15 AM 19.4 °F 8.6 °F 6.8 °F 58% 30.07 in 10.0 mi SE 9.2 mph - N/A   Clear
1:35 AM 19.4 °F 8.6 °F 6.8 °F 58% 30.06 in 10.0 mi SE 9.2 mph - N/A   Clear
1:55 AM 19.4 °F 7.9 °F 8.6 °F 63% 30.06 in 10.0 mi SE 10.4 mph - N/A   Clear
2:15 AM 19.4 °F 7.2 °F 8.6 °F 63% 30.05 in 10.0 mi SE 11.5 mph - N/A   Clear
2:35 AM 21.2 °F 9.5 °F 8.6 °F 58% 30.05 in 10.0 mi SE 11.5 mph - N/A   Scattered Clouds
2:55 AM 21.2 °F 8.9 °F 6.8 °F 54% 30.04 in 10.0 mi SE 12.7 mph - N/A   Partly Cloudy
3:15 AM 21.2 °F 10.1 °F 8.6 °F 58% 30.04 in 10.0 mi SE 10.4 mph - N/A   Partly Cloudy
3:35 AM 21.2 °F 8.9 °F 8.6 °F 58% 30.03 in 10.0 mi SSE 12.7 mph - N/A   Scattered Clouds
3:55 AM 23.0 °F 10.6 °F 6.8 °F 50% 30.02 in 10.0 mi SSE 13.8 mph - N/A   Scattered Clouds
4:15 AM 21.2 °F 8.9 °F 6.8 °F 54% 30.01 in 10.0 mi SE 12.7 mph - N/A   Scattered Clouds
4:35 AM 21.2 °F 8.9 °F 6.8 °F 54% 30.00 in 10.0 mi SE 12.7 mph - N/A   Scattered Clouds
4:55 AM 23.0 °F 10.6 °F 6.8 °F 50% 29.99 in 10.0 mi SE 13.8 mph - N/A   Mostly Cloudy
5:15 AM 23.0 °F 10.1 °F 5.0 °F 46% 29.97 in 10.0 mi SE 15.0 mph 20.7 mph N/A   Mostly Cloudy
5:35 AM 23.0 °F 10.6 °F 6.8 °F 50% 29.96 in 10.0 mi SE 13.8 mph 20.7 mph N/A   Scattered Clouds
5:55 AM 23.0 °F 9.2 °F 6.8 °F 50% 29.95 in 10.0 mi SSE 17.3 mph - N/A   Partly Cloudy
6:15 AM 23.0 °F 10.1 °F 6.8 °F 50% 29.94 in 10.0 mi SSE 15.0 mph 24.2 mph N/A   Scattered Clouds
6:35 AM 23.0 °F 8.3 °F 6.8 °F 50% 29.93 in 10.0 mi SSE 19.6 mph 25.3 mph N/A   Partly Cloudy
6:55 AM 23.0 °F 8.7 °F 6.8 °F 50% 29.92 in 10.0 mi SSE 18.4 mph - N/A   Clear
7:15 AM 24.8 °F 11.1 °F 8.6 °F 50% 29.92 in 10.0 mi SSE 18.4 mph 24.2 mph N/A   Clear
7:35 AM 24.8 °F 11.1 °F 8.6 °F 50% 29.91 in 10.0 mi SSE 18.4 mph - N/A   Clear
7:55 AM 26.6 °F 13.1 °F 10.4 °F 51% 29.90 in 10.0 mi SSE 19.6 mph 25.3 mph N/A   Clear
8:15 AM 26.6 °F 12.0 °F 10.4 °F 51% 29.90 in 10.0 mi SSE 23.0 mph 29.9 mph N/A   Clear
8:35 AM 28.4 °F 14.4 °F 10.4 °F 47% 29.88 in 10.0 mi SSE 23.0 mph - N/A   Clear
8:55 AM 28.4 °F 13.5 °F 12.2 °F 51% 29.87 in 10.0 mi SSE 26.5 mph - N/A   Clear
9:15 AM 32.0 °F 19.8 °F 12.2 °F 44% 29.85 in 10.0 mi SSE 20.7 mph 29.9 mph N/A   Clear
9:35 AM 33.8 °F 20.5 °F 12.2 °F 41% 29.83 in 10.0 mi SSE 27.6 mph - N/A   Clear
9:55 AM 35.6 °F 23.2 °F 14.0 °F 41% 29.82 in 10.0 mi SSE 26.5 mph 33.4 mph N/A   Clear
10:15 AM 37.4 °F 24.6 °F 14.0 °F 38% 29.81 in 10.0 mi South 32.2 mph 41.4 mph N/A   Clear
10:35 AM 39.2 °F 27.2 °F 15.8 °F 39% 29.79 in 10.0 mi South 31.1 mph 40.3 mph N/A   Clear
10:55 AM 41.0 °F 29.0 °F 17.6 °F 39% 29.78 in 10.0 mi South 35.7 mph - N/A   Clear
11:15 AM 42.8 °F 32.7 °F 17.6 °F 36% 29.77 in 10.0 mi South 27.6 mph 47.2 mph N/A   Clear
11:35 AM 44.6 °F 34.6 °F 19.4 °F 37% 29.75 in 10.0 mi South 31.1 mph 41.4 mph N/A   Clear
11:55 AM 46.4 °F 36.9 °F 19.4 °F 34% 29.73 in 10.0 mi South 32.2 mph 41.4 mph N/A   Clear
12:15 PM 48.2 °F - 21.2 °F 34% 29.72 in 10.0 mi South 32.2 mph 44.9 mph N/A   Clear
12:35 PM 48.2 °F - 21.2 °F 34% 29.70 in 10.0 mi South 31.1 mph 40.3 mph N/A   Clear
12:55 PM 50.0 °F - 21.2 °F 32% 29.68 in 10.0 mi South 29.9 mph 41.4 mph N/A   Clear
1:15 PM 51.8 °F - 23.0 °F 33% 29.67 in 10.0 mi South 29.9 mph 40.3 mph N/A   Clear
1:35 PM 51.8 °F - 24.8 °F 35% 29.65 in 10.0 mi South 31.1 mph 43.7 mph N/A   Clear
1:55 PM 51.8 °F - 23.0 °F 33% 29.63 in 10.0 mi South 29.9 mph 44.9 mph N/A   Clear
2:15 PM 53.6 °F - 24.8 °F 33% 29.62 in 10.0 mi South 34.5 mph 42.6 mph N/A   Clear
2:35 PM 53.6 °F - 24.8 °F 33% 29.60 in 10.0 mi South 29.9 mph 42.6 mph N/A   Clear
2:55 PM 55.4 °F - 26.6 °F 33% 29.58 in 10.0 mi South 31.1 mph 43.7 mph N/A   Clear
3:15 PM 57.2 °F - 26.6 °F 31% 29.56 in 10.0 mi South 28.8 mph 39.1 mph N/A   Clear
3:35 PM 57.2 °F - 26.6 °F 31% 29.56 in 10.0 mi South 25.3 mph 40.3 mph N/A   Clear
3:55 PM 59.0 °F - 28.4 °F 31% 29.55 in 10.0 mi South 26.5 mph 41.4 mph N/A   Clear
4:15 PM 59.0 °F - 28.4 °F 31% 29.53 in 10.0 mi South 29.9 mph 43.7 mph N/A   Clear
4:35 PM 59.0 °F - 30.2 °F 34% 29.52 in 10.0 mi South 24.2 mph 36.8 mph N/A   Clear
4:55 PM 59.0 °F - 30.2 °F 34% 29.51 in 10.0 mi South 31.1 mph 36.8 mph N/A   Clear
5:15 PM 60.8 °F - 30.2 °F 31% 29.49 in 10.0 mi South 29.9 mph 39.1 mph N/A   Clear
5:35 PM 60.8 °F - 32.0 °F 34% 29.48 in 10.0 mi South 26.5 mph 33.4 mph N/A   Clear
5:55 PM 62.6 °F - 32.0 °F 32% 29.47 in 10.0 mi South 25.3 mph 35.7 mph N/A   Clear
6:15 PM 62.6 °F - 35.6 °F 37% 29.46 in 8.0 mi South 33.4 mph 40.3 mph N/A   Partly Cloudy
6:35 PM 60.8 °F - 35.6 °F 39% 29.46 in 7.0 mi South 32.2 mph 39.1 mph N/A   Partly Cloudy
6:55 PM 57.2 °F - 37.4 °F 48% 29.47 in 6.0 mi South 28.8 mph 41.4 mph N/A   Haze
7:15 PM 55.4 °F - 37.4 °F 51% 29.46 in 7.0 mi South 31.1 mph 40.3 mph N/A   Clear
7:35 PM 53.6 °F - 37.4 °F 54% 29.46 in 7.0 mi South 31.1 mph 42.6 mph N/A   Clear
7:55 PM 53.6 °F - 37.4 °F 54% 29.46 in 8.0 mi South 31.1 mph 42.6 mph N/A   Mostly Cloudy
8:15 PM 51.8 °F - 37.4 °F 58% 29.47 in 10.0 mi South 24.2 mph 42.6 mph N/A   Overcast
8:35 PM 51.8 °F - 39.2 °F 62% 29.47 in 10.0 mi South 31.1 mph 42.6 mph N/A   Overcast
8:55 PM 50.0 °F - 39.2 °F 66% 29.47 in 10.0 mi South 31.1 mph 44.9 mph N/A   Overcast
9:15 PM 50.0 °F - 39.2 °F 66% 29.48 in 10.0 mi South 32.2 mph - N/A   Overcast
9:35 PM 48.2 °F - 39.2 °F 71% 29.48 in 10.0 mi South 31.1 mph 43.7 mph N/A   Overcast
9:55 PM 46.4 °F 37.9 °F 39.2 °F 76% 29.48 in 10.0 mi South 25.3 mph 39.1 mph N/A   Overcast
10:15 PM 46.4 °F 37.7 °F 39.2 °F 76% 29.48 in 10.0 mi South 26.5 mph 41.4 mph N/A   Overcast
10:35 PM 46.4 °F 38.3 °F 39.2 °F 76% 29.48 in 10.0 mi South 23.0 mph 41.4 mph N/A   Overcast
10:55 PM 46.4 °F 38.5 °F 39.2 °F 76% 29.48 in 10.0 mi South 21.9 mph 39.1 mph N/A   Overcast
11:15 PM 44.6 °F 34.6 °F 39.2 °F 81% 29.48 in 10.0 mi South 31.1 mph 43.7 mph N/A   Overcast
11:35 PM 44.6 °F 35.7 °F 39.2 °F 81% 29.48 in 10.0 mi South 24.2 mph 36.8 mph N/A   Overcast
11:55 PM 44.6 °F 34.9 °F 39.2 °F 81% 29.47 in 10.0 mi South 28.8 mph 41.4 mph N/A   Overcast